Find Starlink 37592

NORAD ID: 69025 Int'l Des: 2026-101 Owner: SPXS Country: US Constellation: starlink operational
LEOCIRCULARRETROGRADE

当前视图

正在加载3D地球...

About Starlink 37592

Starlink 37592 (NORAD 69025) is a starlink constellation satellite (v2 mini) launched May 6, 2026 by SPXS of US. It operates in LEO, CIRCULAR, RETROGRADE orbit with a mass of 575.00 kg.

关于 Starlink 37592

正在加载描述...

即将过境

Passes for default location (London). Set your location on the main map for personalized predictions.

高度历史

Loading altitude history...

两行轨道根数

1 69025U 26101A 26176.57079213 .00025731 00000-0 79637-3 0 9991
2 69025 97.2865 31.2399 0001690 73.9977 286.1452 15.33455404 7858
Epoch: Jun 25, 2026 • Age: 8 hours

当前状态

高度 477.9 km
速度 7.63 km/s
星下点 81.40°N, 25.62°E
发射日期 May 6, 2026
运行时间 0.1 years
类型 internet

技术详情

分类 Payload
质量 575.00 kg
干质量 530.00 kg
总质量 575.00 kg
长度 0.30 m
直径 4.10 m
跨度 29.00 m
形状 Box + pan
制造商 SPXS
平台类型 Starlink V2MO
阶段状态 In Orbit
所有者/国家 SPXS/US

Most Searched